﻿_id,日時,平均風速(m/s),平均風向,最大瞬間風速(m/s),最大風速時風向,気温(℃),湿度(%),10分間移動積算雨量(mm),1時間移動積算雨量(mm),日雨量(mm),累計雨量(mm),日射(日積算)(MJ/m2),日照(日積算)(min),現地気圧(hPa),海面気圧(hPa)
1,2020-11-23T00:00:00,1.7,南南西,3,南南西,12.8,93.9,0,0,0,0,10.14,273,1002.9,1016.9
2,2020-11-23T00:01:00,1.7,南南西,3,南南西,12.8,94,0,0,0,0,0,0,1002.9,1016.9
3,2020-11-23T00:02:00,1.7,南南西,3,南南西,12.8,94.1,0,0,0,0,0,0,1002.9,1016.9
4,2020-11-23T00:03:00,1.7,南南西,3,南,12.8,94.3,0,0,0,0,0,0,1002.9,1016.9
5,2020-11-23T00:04:00,1.6,南南西,3,南,12.8,94.5,0,0,0,0,0,0,1002.9,1016.9
6,2020-11-23T00:05:00,1.6,南南西,3,南,12.8,94.8,0,0,0,0,0,0,1003,1017
7,2020-11-23T00:06:00,1.6,南南西,3,南,12.7,94.6,0,0,0,0,0,0,1002.9,1016.9
8,2020-11-23T00:07:00,1.6,南南西,3,南,12.7,94.7,0,0,0,0,0,0,1002.9,1016.9
9,2020-11-23T00:08:00,1.6,南南西,3,南,12.7,94.9,0,0,0,0,0,0,1002.9,1016.9
10,2020-11-23T00:09:00,1.5,南南西,3,南,12.8,95.3,0,0,0,0,0,0,1002.8,1016.8
11,2020-11-23T00:10:00,1.4,南西,3,南,12.8,95.4,0,0,0,0,0,0,1002.8,1016.8
12,2020-11-23T00:11:00,1.4,南西,3,南,12.7,95.4,0,0,0,0,0,0,1002.8,1016.8
13,2020-11-23T00:12:00,1.3,南西,2.7,南南西,12.6,95.2,0,0,0,0,0,0,1002.9,1016.9
14,2020-11-23T00:13:00,1.2,南西,2.3,南南西,12.8,95.5,0,0,0,0,0,0,1002.9,1016.9
15,2020-11-23T00:14:00,1.1,南西,2.2,南西,12.7,95.5,0,0,0,0,0,0,1002.9,1016.9
16,2020-11-23T00:15:00,1,南西,1.9,南西,12.9,95.7,0,0,0,0,0,0,1002.8,1016.8
17,2020-11-23T00:16:00,0.9,南西,1.9,南西,12.7,95.6,0,0,0,0,0,0,1002.8,1016.8
18,2020-11-23T00:17:00,0.8,南西,1.6,南西,12.7,95.5,0,0,0,0,0,0,1002.8,1016.8
19,2020-11-23T00:18:00,0.8,南西,1.6,南西,12.7,95.7,0,0,0,0,0,0,1002.8,1016.8
20,2020-11-23T00:19:00,0.8,南西,1.6,南西,12.8,95.6,0,0,0,0,0,0,1002.8,1016.8
21,2020-11-23T00:20:00,0.9,南西,2.2,南南西,12.7,95.7,0,0,0,0,0,0,1002.8,1016.8
22,2020-11-23T00:21:00,0.9,南西,2.2,南南西,12.7,95.6,0,0,0,0,0,0,1002.8,1016.8
23,2020-11-23T00:22:00,0.9,南西,2.2,南南西,12.7,95.6,0,0,0,0,0,0,1002.8,1016.8
24,2020-11-23T00:23:00,0.9,南西,2.2,南南西,12.7,95.7,0,0,0,0,0,0,1002.9,1016.9
25,2020-11-23T00:24:00,0.9,南西,2.2,南南西,12.7,95.7,0,0,0,0,0,0,1002.8,1016.8
26,2020-11-23T00:25:00,0.9,南西,2.2,南南西,12.5,95.6,0,0,0,0,0,0,1002.8,1016.8
27,2020-11-23T00:26:00,0.9,南西,2.2,南南西,12.6,95.7,0,0,0,0,0,0,1002.8,1016.8
28,2020-11-23T00:27:00,0.9,南西,2.2,南南西,12.8,95.9,0,0,0,0,0,0,1002.8,1016.8
29,2020-11-23T00:28:00,0.9,南西,2.2,南南西,12.8,95.9,0,0,0,0,0,0,1002.8,1016.8
30,2020-11-23T00:29:00,0.9,南西,2.2,南南西,13,96,0,0,0,0,0,0,1002.8,1016.8
31,2020-11-23T00:30:00,0.8,南西,2,南南西,12.9,96.1,0,0,0,0,0,0,1002.9,1016.9
32,2020-11-23T00:31:00,0.7,南西,2,南南西,12.8,95.8,0,0,0,0,0,0,1002.9,1016.9
33,2020-11-23T00:32:00,0.5,南西,1.6,南西,12.7,95.7,0,0,0,0,0,0,1002.9,1016.9
34,2020-11-23T00:33:00,0.4,南西,1.3,西南西,12.8,95.8,0,0,0,0,0,0,1002.9,1016.9
35,2020-11-23T00:34:00,0.4,南西,1.1,南西,12.8,95.8,0,0,0,0,0,0,1002.9,1016.9
36,2020-11-23T00:35:00,0.4,南西,1.1,南西,12.9,95.9,0,0,0,0,0,0,1002.8,1016.8
37,2020-11-23T00:36:00,0.4,南西,1.1,南西,12.7,95.8,0,0,0,0,0,0,1002.8,1016.8
38,2020-11-23T00:37:00,0.3,南西,1.1,南西,12.6,95.5,0,0,0,0,0,0,1002.8,1016.8
39,2020-11-23T00:38:00,0.3,南西,1,西,12.7,95.6,0,0,0,0,0,0,1002.8,1016.8
40,2020-11-23T00:39:00,0.3,南西,1,西,12.7,95.8,0,0,0,0,0,0,1002.8,1016.8
41,2020-11-23T00:40:00,0.4,南西,1,西,12.7,95.7,0,0,0,0,0,0,1002.8,1016.8
42,2020-11-23T00:41:00,0.4,南西,1,西,12.6,95.7,0,0,0,0,0,0,1002.7,1016.7
43,2020-11-23T00:42:00,0.4,南西,1,西,12.6,95.8,0,0,0,0,0,0,1002.7,1016.7
44,2020-11-23T00:43:00,0.4,南西,1,西,12.6,95.8,0,0,0,0,0,0,1002.7,1016.7
45,2020-11-23T00:44:00,0.3,南西,1,西,12.7,95.9,0,0,0,0,0,0,1002.7,1016.7
46,2020-11-23T00:45:00,0.3,南西,1,南南西,12.8,96,0,0,0,0,0,0,1002.8,1016.8
47,2020-11-23T00:46:00,0.3,南西,1,南南西,12.8,96.1,0,0,0,0,0,0,1002.7,1016.7
48,2020-11-23T00:47:00,0.2,静穏,1,南南西,12.7,95.9,0,0,0,0,0,0,1002.7,1016.7
49,2020-11-23T00:48:00,0.2,静穏,1,南南西,12.6,95.8,0,0,0,0,0,0,1002.7,1016.7
50,2020-11-23T00:49:00,0.2,静穏,1,南南西,12.7,96,0,0,0,0,0,0,1002.8,1016.8
51,2020-11-23T00:50:00,0.1,静穏,0.6,南南西,12.7,95.9,0,0,0,0,0,0,1002.8,1016.8
52,2020-11-23T00:51:00,0.1,静穏,0.6,南南西,12.7,96.1,0,0,0,0,0,0,1002.7,1016.7
53,2020-11-23T00:52:00,0.1,静穏,0.6,南南西,12.6,95.9,0,0,0,0,0,0,1002.8,1016.8
54,2020-11-23T00:53:00,0.1,静穏,0.4,北西,12.6,95.9,0,0,0,0,0,0,1002.7,1016.7
55,2020-11-23T00:54:00,0.1,静穏,0.4,北西,12.6,95.9,0,0,0,0,0,0,1002.8,1016.8
56,2020-11-23T00:55:00,0.1,静穏,0.4,北西,12.6,95.9,0,0,0,0,0,0,1002.8,1016.8
57,2020-11-23T00:56:00,0.1,静穏,0.4,北西,12.6,96,0,0,0,0,0,0,1002.8,1016.8
58,2020-11-23T00:57:00,0.1,静穏,0.4,北西,12.6,96,0,0,0,0,0,0,1002.8,1016.8
59,2020-11-23T00:58:00,0.1,静穏,0.4,北西,12.6,96.1,0,0,0,0,0,0,1002.8,1016.8
60,2020-11-23T00:59:00,0.1,静穏,0.6,西,12.5,96.1,0,0,0,0,0,0,1002.8,1016.8
61,2020-11-23T01:00:00,0.2,静穏,0.8,西北西,12.6,96.3,0,0,0,0,0,0,1002.8,1016.8
62,2020-11-23T01:01:00,0.2,静穏,0.9,西北西,12.6,96.3,0,0,0,0,0,0,1002.8,1016.8
63,2020-11-23T01:02:00,0.3,北西,0.9,西北西,12.8,96.4,0,0,0,0,0,0,1002.8,1016.8
64,2020-11-23T01:03:00,0.3,北西,0.9,西北西,12.7,96.4,0,0,0,0,0,0,1002.8,1016.8
65,2020-11-23T01:04:00,0.4,北西,0.9,西北西,12.8,96.4,0,0,0,0,0,0,1002.9,1016.9
66,2020-11-23T01:05:00,0.5,北西,0.9,西北西,13,96.7,0,0,0,0,0,0,1002.9,1016.9
67,2020-11-23T01:06:00,0.5,西北西,0.9,西北西,12.7,96.5,0,0,0,0,0,0,1002.9,1016.9
68,2020-11-23T01:07:00,0.6,西北西,0.9,西北西,12.7,96.2,0,0,0,0,0,0,1002.9,1016.9
69,2020-11-23T01:08:00,0.6,西北西,0.9,西北西,12.6,96.2,0,0,0,0,0,0,1002.9,1016.9
70,2020-11-23T01:09:00,0.6,西北西,0.9,西北西,12.6,96.1,0,0,0,0,0,0,1002.9,1016.9
71,2020-11-23T01:10:00,0.6,西北西,0.9,西北西,12.5,96.1,0,0,0,0,0,0,1002.9,1016.9
72,2020-11-23T01:11:00,0.5,西,0.8,西南西,12.6,96.2,0,0,0,0,0,0,1002.8,1016.8
73,2020-11-23T01:12:00,0.4,西,0.8,西南西,12.6,96.3,0,0,0,0,0,0,1002.8,1016.8
74,2020-11-23T01:13:00,0.4,西,0.8,西南西,12.7,96.4,0,0,0,0,0,0,1002.8,1016.8
75,2020-11-23T01:14:00,0.3,西南西,0.8,西南西,12.7,96.4,0,0,0,0,0,0,1002.8,1016.8
76,2020-11-23T01:15:00,0.3,南西,0.8,西南西,12.6,96.3,0,0,0,0,0,0,1002.8,1016.8
77,2020-11-23T01:16:00,0.2,静穏,0.8,西南西,12.6,96.2,0,0,0,0,0,0,1002.9,1016.9
78,2020-11-23T01:17:00,0.2,静穏,0.8,西南西,12.6,96.4,0,0,0,0,0,0,1002.9,1016.9
79,2020-11-23T01:18:00,0.2,静穏,0.7,南南西,12.9,96.4,0,0,0,0,0,0,1002.9,1016.9
80,2020-11-23T01:19:00,0.2,静穏,0.7,南南西,13,96.7,0,0,0,0,0,0,1002.9,1016.9
81,2020-11-23T01:20:00,0.2,静穏,0.7,南南西,13.1,96.6,0,0,0,0,0,0,1002.9,1016.9
82,2020-11-23T01:21:00,0.2,静穏,0.7,南南西,12.9,96.4,0,0,0,0,0,0,1002.9,1016.9
83,2020-11-23T01:22:00,0.2,静穏,0.7,南南西,12.6,96,0,0,0,0,0,0,1002.9,1016.9
84,2020-11-23T01:23:00,0.2,静穏,0.7,南南西,12.6,95.8,0,0,0,0,0,0,1002.9,1016.9
85,2020-11-23T01:24:00,0.2,静穏,0.7,南南西,12.7,95.8,0,0,0,0,0,0,1002.8,1016.8
86,2020-11-23T01:25:00,0.3,西南西,0.9,西北西,12.8,96.2,0,0,0,0,0,0,1002.8,1016.8
87,2020-11-23T01:26:00,0.3,西南西,1.4,西,12.7,96,0,0,0,0,0,0,1002.8,1016.8
88,2020-11-23T01:27:00,0.4,西南西,1.4,西,12.7,95.9,0,0,0,0,0,0,1002.9,1016.9
89,2020-11-23T01:28:00,0.5,西,1.5,西,12.7,95.9,0,0,0,0,0,0,1002.9,1016.9
90,2020-11-23T01:29:00,0.6,西,1.5,西,12.7,96,0,0,0,0,0,0,1002.9,1016.9
91,2020-11-23T01:30:00,0.7,西,1.5,西,12.7,96.1,0,0,0,0,0,0,1002.9,1016.9
92,2020-11-23T01:31:00,0.8,西,1.6,西,12.7,96,0,0,0,0,0,0,1002.9,1016.9
93,2020-11-23T01:32:00,0.9,西,1.7,西,12.7,96,0,0,0,0,0,0,1003,1017
94,2020-11-23T01:33:00,1.1,西,1.7,西,12.7,96,0,0,0,0,0,0,1003,1017
95,2020-11-23T01:34:00,1.1,西,1.7,西,12.8,96,0,0,0,0,0,0,1003,1017
96,2020-11-23T01:35:00,1.2,西,1.7,西,12.7,96,0,0,0,0,0,0,1003,1017
97,2020-11-23T01:36:00,1.2,西,1.7,西,12.6,95.8,0,0,0,0,0,0,1003,1017
98,2020-11-23T01:37:00,1.2,西,1.7,西,12.6,95.9,0,0,0,0,0,0,1003,1017
99,2020-11-23T01:38:00,1.2,西,1.7,西,12.5,95.9,0,0,0,0,0,0,1003,1017
100,2020-11-23T01:39:00,1.1,西,1.7,西,12.5,95.8,0,0,0,0,0,0,1003,1017
101,2020-11-23T01:40:00,1.1,西,1.7,西,12.6,96,0,0,0,0,0,0,1003,1017
102,2020-11-23T01:41:00,1.1,西,1.7,西,12.4,95.9,0,0,0,0,0,0,1003,1017
103,2020-11-23T01:42:00,0.9,西,1.6,西,12.4,95.9,0,0,0,0,0,0,1003,1017
104,2020-11-23T01:43:00,0.8,西,1.4,西,12.5,96.1,0,0,0,0,0,0,1003,1017
105,2020-11-23T01:44:00,0.8,西,1.4,西,12.4,96.2,0,0,0,0,0,0,1003.1,1017.1
106,2020-11-23T01:45:00,0.7,西,1.4,西,12.5,96.3,0,0,0,0,0,0,1003,1017
107,2020-11-23T01:46:00,0.7,西,1.4,西,12.5,96.3,0,0,0,0,0,0,1003,1017
108,2020-11-23T01:47:00,0.6,西,1.4,西,12.5,96.3,0,0,0,0,0,0,1003,1017
109,2020-11-23T01:48:00,0.6,西,1.3,西,12.5,96.4,0,0,0,0,0,0,1003.1,1017.1
110,2020-11-23T01:49:00,0.5,西,1.2,西,12.5,96.4,0,0,0,0,0,0,1003.1,1017.1
111,2020-11-23T01:50:00,0.5,西北西,1.1,西,12.4,96.3,0,0,0,0,0,0,1003.1,1017.1
112,2020-11-23T01:51:00,0.4,西北西,0.8,西,12.6,96.4,0,0,0,0,0,0,1003.1,1017.1
113,2020-11-23T01:52:00,0.4,西北西,0.7,西北西,12.5,96.5,0,0,0,0,0,0,1003.1,1017.1
114,2020-11-23T01:53:00,0.5,西北西,0.8,西,12.4,96.4,0,0,0,0,0,0,1003.2,1017.2
115,2020-11-23T01:54:00,0.5,西北西,0.9,北西,12.5,96.5,0,0,0,0,0,0,1003.2,1017.2
116,2020-11-23T01:55:00,0.5,西北西,0.9,北西,12.6,96.5,0,0,0,0,0,0,1003.2,1017.2
117,2020-11-23T01:56:00,0.5,西北西,0.9,北西,12.5,96.6,0,0,0,0,0,0,1003.2,1017.2
118,2020-11-23T01:57:00,0.5,西北西,1,北西,12.6,96.5,0,0,0,0,0,0,1003.2,1017.2
119,2020-11-23T01:58:00,0.5,西北西,1,北西,12.5,96.6,0,0,0,0,0,0,1003.3,1017.3
120,2020-11-23T01:59:00,0.5,北西,1.1,北,12.6,96.5,0,0,0,0,0,0,1003.3,1017.3
121,2020-11-23T02:00:00,0.5,北西,1.2,北北東,12.6,96.7,0,0,0,0,0,0,1003.3,1017.3
122,2020-11-23T02:01:00,0.6,北西,1.4,北北東,12.5,96.6,0,0,0,0,0,0,1003.3,1017.3
123,2020-11-23T02:02:00,0.7,北北西,1.4,北北東,12.6,96.6,0,0,0,0,0,0,1003.3,1017.3
124,2020-11-23T02:03:00,0.7,北北西,1.4,北北東,12.6,96.7,0,0,0,0,0,0,1003.4,1017.4
125,2020-11-23T02:04:00,0.7,北,1.4,北北東,12.6,96.7,0,0,0,0,0,0,1003.4,1017.4
126,2020-11-23T02:05:00,0.7,北,1.4,北北東,12.6,96.7,0,0,0,0,0,0,1003.4,1017.4
127,2020-11-23T02:06:00,0.7,北,1.4,北北東,12.6,96.6,0,0,0,0,0,0,1003.4,1017.4
128,2020-11-23T02:07:00,0.6,北,1.4,北北東,12.6,96.7,0,0,0,0,0,0,1003.5,1017.5
129,2020-11-23T02:08:00,0.7,北,1.4,北北東,12.7,96.7,0,0,0,0,0,0,1003.5,1017.5
130,2020-11-23T02:09:00,0.7,北北東,1.4,北北東,12.7,96.7,0,0,0,0,0,0,1003.4,1017.4
131,2020-11-23T02:10:00,0.6,北北東,1.4,北北東,12.7,96.8,0,0,0,0,0,0,1003.4,1017.4
132,2020-11-23T02:11:00,0.6,北北東,1.3,北北東,12.7,96.7,0,0,0,0,0,0,1003.4,1017.4
133,2020-11-23T02:12:00,0.5,北北東,1.2,北,12.7,96.7,0,0,0,0,0,0,1003.4,1017.4
134,2020-11-23T02:13:00,0.4,北北東,1.1,東,12.8,96.8,0,0,0,0,0,0,1003.4,1017.4
135,2020-11-23T02:14:00,0.4,北北東,1.4,北北東,12.8,96.8,0,0,0,0,0,0,1003.4,1017.4
136,2020-11-23T02:15:00,0.5,北北東,1.6,北東,12.8,96.7,0,0,0,0,0,0,1003.4,1017.4
137,2020-11-23T02:16:00,0.6,北北東,1.7,北東,12.8,96.7,0,0,0,0,0,0,1003.4,1017.4
138,2020-11-23T02:17:00,0.7,北東,2,東北東,12.7,96.6,0,0,0,0,0,0,1003.5,1017.5
139,2020-11-23T02:18:00,0.8,北東,2,東北東,12.8,96.7,0,0,0,0,0,0,1003.4,1017.4
140,2020-11-23T02:19:00,0.8,北東,2,東北東,12.9,96.7,0,0,0,0,0,0,1003.5,1017.5
141,2020-11-23T02:20:00,0.8,北東,2,東北東,12.9,96.6,0,0,0,0,0,0,1003.5,1017.5
142,2020-11-23T02:21:00,0.8,北東,2,東北東,12.9,96.5,0,0,0,0,0,0,1003.5,1017.5
143,2020-11-23T02:22:00,0.9,北東,2,東北東,12.9,96.6,0,0,0,0,0,0,1003.5,1017.5
144,2020-11-23T02:23:00,0.9,北東,2,東北東,12.9,96.5,0,0,0,0,0,0,1003.5,1017.5
145,2020-11-23T02:24:00,1,北東,2.1,東北東,12.9,96.4,0,0,0,0,0,0,1003.4,1017.4
146,2020-11-23T02:25:00,1.1,北東,2.2,東北東,12.9,96.4,0,0,0,0,0,0,1003.4,1017.4
147,2020-11-23T02:26:00,1.1,北東,2.2,東北東,12.8,96.3,0,0,0,0,0,0,1003.4,1017.4
148,2020-11-23T02:27:00,1.1,東北東,2.2,東北東,12.9,96.3,0,0,0,0,0,0,1003.4,1017.4
149,2020-11-23T02:28:00,1.1,北東,2.2,東北東,12.9,96.3,0,0,0,0,0,0,1003.5,1017.5
150,2020-11-23T02:29:00,1.1,北東,2.2,東北東,12.8,96.3,0,0,0,0,0,0,1003.5,1017.5
151,2020-11-23T02:30:00,1.1,北東,2.2,東北東,12.8,96.2,0,0,0,0,0,0,1003.5,1017.5
152,2020-11-23T02:31:00,1.2,北東,2.2,東北東,12.8,96.1,0,0,0,0,0,0,1003.5,1017.5
153,2020-11-23T02:32:00,1.1,北東,2.2,東北東,12.8,96.2,0,0,0,0,0,0,1003.5,1017.5
154,2020-11-23T02:33:00,1.1,北東,2.2,東北東,12.8,96.2,0,0,0,0,0,0,1003.4,1017.4
155,2020-11-23T02:34:00,1.1,北東,2.2,東北東,12.8,96.2,0,0,0,0,0,0,1003.4,1017.4
156,2020-11-23T02:35:00,1,北東,2.1,北東,12.9,96.3,0,0,0,0,0,0,1003.5,1017.5
157,2020-11-23T02:36:00,0.9,北東,1.9,東北東,12.8,96.1,0,0,0,0,0,0,1003.5,1017.5
158,2020-11-23T02:37:00,0.9,北東,1.7,東北東,12.9,96.2,0,0,0,0,0,0,1003.5,1017.5
159,2020-11-23T02:38:00,0.8,北東,1.7,東北東,12.8,96.1,0,0,0,0,0,0,1003.5,1017.5
160,2020-11-23T02:39:00,0.8,北東,1.7,東北東,12.8,96.1,0,0,0,0,0,0,1003.5,1017.5
161,2020-11-23T02:40:00,0.8,北東,1.7,東北東,12.8,96.1,0,0,0,0,0,0,1003.5,1017.5
162,2020-11-23T02:41:00,0.8,北東,1.7,東北東,12.8,96.2,0,0,0,0,0,0,1003.5,1017.5
163,2020-11-23T02:42:00,0.8,北東,1.7,東北東,12.8,96.1,0,0,0,0,0,0,1003.5,1017.5
164,2020-11-23T02:43:00,0.7,北東,1.7,東北東,12.7,96,0,0,0,0,0,0,1003.4,1017.4
165,2020-11-23T02:44:00,0.7,北北東,1.5,北東,12.8,96.1,0,0,0,0,0,0,1003.4,1017.4
166,2020-11-23T02:45:00,0.6,北北東,1.5,北東,12.6,96,0,0,0,0,0,0,1003.4,1017.4
167,2020-11-23T02:46:00,0.6,北,1.5,北東,12.6,96,0,0,0,0,0,0,1003.4,1017.4
168,2020-11-23T02:47:00,0.5,北,1.5,北東,12.7,96,0,0,0,0,0,0,1003.4,1017.4
169,2020-11-23T02:48:00,0.5,北西,1.5,北東,12.8,96.3,0,0,0,0,0,0,1003.5,1017.5
170,2020-11-23T02:49:00,0.4,西北西,1,西,12.8,96.2,0,0,0,0,0,0,1003.4,1017.4
171,2020-11-23T02:50:00,0.4,西,1,西,12.7,96.2,0,0,0,0,0,0,1003.4,1017.4
172,2020-11-23T02:51:00,0.4,西南西,1,西,12.7,96.1,0,0,0,0,0,0,1003.4,1017.4
173,2020-11-23T02:52:00,0.4,西南西,1,西,12.6,95.9,0,0,0,0,0,0,1003.4,1017.4
174,2020-11-23T02:53:00,0.5,西南西,1.2,西北西,12.6,95.9,0,0,0,0,0,0,1003.4,1017.4
175,2020-11-23T02:54:00,0.6,西南西,1.5,西北西,12.8,96.2,0,0,0,0,0,0,1003.4,1017.4
176,2020-11-23T02:55:00,0.6,西南西,1.5,西北西,12.8,96.2,0,0,0,0,0,0,1003.4,1017.4
177,2020-11-23T02:56:00,0.7,西南西,1.5,西北西,12.7,96.1,0,0,0,0,0,0,1003.4,1017.4
178,2020-11-23T02:57:00,0.8,西南西,1.5,西北西,12.5,95.8,0,0,0,0,0,0,1003.4,1017.4
179,2020-11-23T02:58:00,0.8,西南西,1.5,西北西,12.4,95.7,0,0,0,0,0,0,1003.4,1017.4
180,2020-11-23T02:59:00,1,西南西,2.2,西南西,12.5,95.9,0,0,0,0,0,0,1003.4,1017.4
181,2020-11-23T03:00:00,1.1,西南西,2.2,西南西,12.6,96.1,0,0,0,0,0,0,1003.4,1017.4
182,2020-11-23T03:01:00,1.2,西南西,2.2,西南西,12.5,96.1,0,0,0,0,0,0,1003.4,1017.4
183,2020-11-23T03:02:00,1.2,西南西,2.2,西南西,12.5,96.1,0,0,0,0,0,0,1003.5,1017.5
184,2020-11-23T03:03:00,1.3,西南西,2.3,西南西,12.5,96.2,0,0,0,0,0,0,1003.5,1017.5
185,2020-11-23T03:04:00,1.3,西南西,2.5,西,12.6,96.3,0,0,0,0,0,0,1003.5,1017.5
186,2020-11-23T03:05:00,1.4,西南西,2.5,西,12.6,96.3,0,0,0,0,0,0,1003.4,1017.4
187,2020-11-23T03:06:00,1.5,西南西,2.7,西,12.6,96.3,0,0,0,0,0,0,1003.4,1017.4
188,2020-11-23T03:07:00,1.5,西南西,2.7,西,12.6,96.3,0,0,0,0,0,0,1003.5,1017.5
189,2020-11-23T03:08:00,1.5,西南西,2.7,西,12.5,96.3,0,0,0,0,0,0,1003.5,1017.5
190,2020-11-23T03:09:00,1.6,西南西,2.9,西南西,12.6,96.3,0,0,0,0,0,0,1003.5,1017.5
191,2020-11-23T03:10:00,1.7,西南西,2.9,西南西,12.6,96.3,0,0,0,0,0,0,1003.5,1017.5
192,2020-11-23T03:11:00,1.7,西南西,2.9,西南西,12.6,96.3,0,0,0,0,0,0,1003.5,1017.5
193,2020-11-23T03:12:00,1.8,西南西,2.9,西南西,12.6,96.4,0,0,0,0,0,0,1003.5,1017.5
194,2020-11-23T03:13:00,1.8,西南西,2.9,西南西,12.6,96.4,0,0,0,0,0,0,1003.5,1017.5
195,2020-11-23T03:14:00,1.8,西南西,2.9,西南西,12.6,96.2,0,0,0,0,0,0,1003.5,1017.5
196,2020-11-23T03:15:00,1.8,西南西,2.9,西南西,12.7,96.3,0,0,0,0,0,0,1003.4,1017.4
197,2020-11-23T03:16:00,1.8,西南西,2.9,西南西,12.7,96.3,0,0,0,0,0,0,1003.5,1017.5
198,2020-11-23T03:17:00,1.8,西南西,2.9,西南西,12.6,96.2,0,0,0,0,0,0,1003.5,1017.5
199,2020-11-23T03:18:00,1.7,西南西,2.9,西南西,12.6,96.1,0,0,0,0,0,0,1003.5,1017.5
200,2020-11-23T03:19:00,1.6,西南西,2.8,西南西,12.7,96.2,0,0,0,0,0,0,1003.5,1017.5
201,2020-11-23T03:20:00,1.4,西南西,2.6,南西,12.7,96.2,0,0,0,0,0,0,1003.5,1017.5
202,2020-11-23T03:21:00,1.2,西南西,2.6,南西,12.7,96.2,0,0,0,0,0,0,1003.6,1017.6
203,2020-11-23T03:22:00,1.1,西南西,2.3,西南西,12.7,96.2,0,0,0,0,0,0,1003.5,1017.5
204,2020-11-23T03:23:00,0.9,南西,2.2,西南西,12.6,96,0,0,0,0,0,0,1003.5,1017.5
205,2020-11-23T03:24:00,0.8,南西,2.2,西南西,12.8,96.1,0,0,0,0,0,0,1003.6,1017.6
206,2020-11-23T03:25:00,0.7,南西,1.9,西南西,12.6,96.1,0,0,0,0,0,0,1003.6,1017.6
207,2020-11-23T03:26:00,0.7,南南西,1.8,西南西,12.5,95.9,0,0,0,0,0,0,1003.6,1017.6
208,2020-11-23T03:27:00,0.7,南南西,1.8,西南西,12.5,95.9,0,0,0,0,0,0,1003.5,1017.5
209,2020-11-23T03:28:00,0.6,南,1.8,西南西,12.5,95.9,0,0,0,0,0,0,1003.5,1017.5
210,2020-11-23T03:29:00,0.6,南,1.8,南,12.5,96,0,0,0,0,0,0,1003.5,1017.5
211,2020-11-23T03:30:00,0.6,南南東,1.8,南,12.7,96.3,0,0,0,0,0,0,1003.5,1017.5
212,2020-11-23T03:31:00,0.6,南南東,1.8,南,12.7,96.4,0,0,0,0,0,0,1003.5,1017.5
213,2020-11-23T03:32:00,0.6,南,1.8,南,12.7,96.3,0,0,0,0,0,0,1003.5,1017.5
214,2020-11-23T03:33:00,0.6,南南西,1.8,南,12.7,96.3,0,0,0,0,0,0,1003.6,1017.6
215,2020-11-23T03:34:00,0.6,南南西,1.8,南,12.6,96.3,0,0,0,0,0,0,1003.6,1017.6
216,2020-11-23T03:35:00,0.5,南南西,1.8,南,12.6,96.2,0,0,0,0,0,0,1003.6,1017.6
217,2020-11-23T03:36:00,0.4,南南西,1.8,南,12.6,96.3,0,0,0,0,0,0,1003.6,1017.6
218,2020-11-23T03:37:00,0.3,南南西,1.4,南南西,12.6,96.3,0,0,0,0,0,0,1003.6,1017.6
219,2020-11-23T03:38:00,0.3,南西,1.1,南南東,12.6,96.2,0,0,0,0,0,0,1003.6,1017.6
220,2020-11-23T03:39:00,0.3,南西,1,南南西,12.6,96.3,0,0,0,0,0,0,1003.5,1017.5
221,2020-11-23T03:40:00,0.4,南西,1.1,南,12.6,96.4,0,0,0,0,0,0,1003.5,1017.5
222,2020-11-23T03:41:00,0.4,南西,1.2,南,12.6,96.3,0,0,0,0,0,0,1003.5,1017.5
223,2020-11-23T03:42:00,0.5,南南西,1.8,南南西,12.6,96.3,0,0,0,0,0,0,1003.4,1017.4
224,2020-11-23T03:43:00,0.6,南南西,1.8,南南西,12.6,96.3,0,0,0,0,0,0,1003.4,1017.4
225,2020-11-23T03:44:00,0.7,南南西,1.8,南南西,12.5,96.3,0,0,0,0,0,0,1003.4,1017.4
226,2020-11-23T03:45:00,0.7,南南西,1.8,南南西,12.5,96.2,0,0,0,0,0,0,1003.4,1017.4
227,2020-11-23T03:46:00,0.8,南南西,1.8,南南西,12.5,96.3,0,0,0,0,0,0,1003.4,1017.4
228,2020-11-23T03:47:00,0.7,南南西,1.8,南南西,12.6,96.4,0,0,0,0,0,0,1003.4,1017.4
229,2020-11-23T03:48:00,0.7,南,1.8,南南西,12.6,96.5,0,0,0,0,0,0,1003.4,1017.4
230,2020-11-23T03:49:00,0.8,南南西,1.8,南南西,12.6,96.4,0,0,0,0,0,0,1003.4,1017.4
231,2020-11-23T03:50:00,0.8,南,1.8,南南西,12.4,96.2,0,0,0,0,0,0,1003.4,1017.4
232,2020-11-23T03:51:00,0.8,南,1.8,南南西,12.3,96.2,0,0,0,0,0,0,1003.4,1017.4
233,2020-11-23T03:52:00,0.8,東,1.8,北北東,12.2,96,0,0,0,0,0,0,1003.4,1017.4
234,2020-11-23T03:53:00,0.7,北東,1.8,北北東,12.2,96.1,0,0,0,0,0,0,1003.4,1017.4
235,2020-11-23T03:54:00,0.6,北北東,1.8,北北東,12.2,96.3,0,0,0,0,0,0,1003.4,1017.4
236,2020-11-23T03:55:00,0.6,北北東,1.8,北北東,12.3,96.4,0,0,0,0,0,0,1003.4,1017.4
237,2020-11-23T03:56:00,0.6,北北東,1.8,北北東,12.3,96.4,0,0,0,0,0,0,1003.4,1017.4
238,2020-11-23T03:57:00,0.7,北北東,1.8,北北東,12.2,96.4,0,0,0,0,0,0,1003.5,1017.5
239,2020-11-23T03:58:00,0.8,北北東,2.1,北北東,12.3,96.5,0,0,0,0,0,0,1003.5,1017.5
240,2020-11-23T03:59:00,0.8,北北東,2.1,北北東,12.2,96.5,0,0,0,0,0,0,1003.5,1017.5
241,2020-11-23T04:00:00,0.9,北北東,2.1,北北東,12.3,96.5,0,0,0,0,0,0,1003.5,1017.5
242,2020-11-23T04:01:00,0.9,北北東,2.1,北北東,12.3,96.6,0,0,0,0,0,0,1003.5,1017.5
243,2020-11-23T04:02:00,0.9,北北東,2.1,北北東,12.3,96.6,0,0,0,0,0,0,1003.5,1017.5
244,2020-11-23T04:03:00,0.9,北東,2.1,北北東,12.3,96.7,0,0,0,0,0,0,1003.5,1017.5
245,2020-11-23T04:04:00,1,北東,2.1,北北東,12.3,96.7,0,0,0,0,0,0,1003.5,1017.5
246,2020-11-23T04:05:00,1.1,北東,2.1,北北東,12.3,96.7,0,0,0,0,0,0,1003.5,1017.5
247,2020-11-23T04:06:00,1.1,北東,2.1,北北東,12.2,96.6,0,0,0,0,0,0,1003.5,1017.5
248,2020-11-23T04:07:00,1,東北東,2.1,北北東,12.1,96.5,0,0,0,0,0,0,1003.5,1017.5
249,2020-11-23T04:08:00,0.9,東北東,2,北北東,12,96.4,0,0,0,0,0,0,1003.5,1017.5
250,2020-11-23T04:09:00,0.8,東北東,1.7,北東,12.2,96.6,0,0,0,0,0,0,1003.5,1017.5
251,2020-11-23T04:10:00,0.7,北東,1.6,北東,12.3,96.8,0,0,0,0,0,0,1003.5,1017.5
252,2020-11-23T04:11:00,0.6,北東,1.4,東北東,12.2,96.7,0,0,0,0,0,0,1003.5,1017.5
253,2020-11-23T04:12:00,0.6,北東,1.4,東北東,12.1,96.7,0,0,0,0,0,0,1003.5,1017.5
254,2020-11-23T04:13:00,0.5,北東,1.4,東北東,12.1,96.6,0,0,0,0,0,0,1003.5,1017.5
255,2020-11-23T04:14:00,0.4,北東,1.4,東北東,12,96.6,0,0,0,0,0,0,1003.5,1017.5
256,2020-11-23T04:15:00,0.4,北北東,1.5,西,12.1,96.6,0,0,0,0,0,0,1003.6,1017.6
257,2020-11-23T04:16:00,0.5,北,1.5,西,12.1,96.8,0,0,0,0,0,0,1003.6,1017.6
258,2020-11-23T04:17:00,0.6,北北西,1.5,西,12.1,96.7,0,0,0,0,0,0,1003.5,1017.5
259,2020-11-23T04:18:00,0.6,北西,1.5,西,12.1,96.8,0,0,0,0,0,0,1003.5,1017.5
260,2020-11-23T04:19:00,0.6,北西,1.5,西,12.2,96.9,0,0,0,0,0,0,1003.6,1017.6
261,2020-11-23T04:20:00,0.6,北西,1.5,西,12.2,96.9,0,0,0,0,0,0,1003.6,1017.6
262,2020-11-23T04:21:00,0.6,北西,1.5,西,12.1,96.8,0,0,0,0,0,0,1003.6,1017.6
263,2020-11-23T04:22:00,0.7,北西,1.5,西,12,96.7,0,0,0,0,0,0,1003.6,1017.6
264,2020-11-23T04:23:00,0.8,北西,1.5,西,12,96.7,0,0,0,0,0,0,1003.7,1017.7
265,2020-11-23T04:24:00,0.9,北北西,2.3,北,12,96.6,0,0,0,0,0,0,1003.7,1017.7
266,2020-11-23T04:25:00,0.8,北北西,2.3,北,12,96.7,0,0,0,0,0,0,1003.8,1017.8
267,2020-11-23T04:26:00,0.8,北北西,2.4,北北西,11.9,96.6,0,0,0,0,0,0,1003.8,1017.8
268,2020-11-23T04:27:00,0.8,北北西,2.4,北北西,11.9,96.6,0,0,0,0,0,0,1003.8,1017.8
269,2020-11-23T04:28:00,0.9,北,2.4,北北西,11.9,96.7,0,0,0,0,0,0,1003.8,1017.8
270,2020-11-23T04:29:00,0.9,北,2.4,北北西,11.9,96.6,0,0,0,0,0,0,1003.8,1017.8
271,2020-11-23T04:30:00,1,北,2.4,北北西,11.9,96.6,0,0,0,0,0,0,1003.8,1017.8
272,2020-11-23T04:31:00,1,北北西,2.4,北北西,11.9,96.7,0,0,0,0,0,0,1003.8,1017.8
273,2020-11-23T04:32:00,1,北北西,2.4,北北西,11.8,96.6,0,0,0,0,0,0,1003.8,1017.8
274,2020-11-23T04:33:00,1.1,北,2.4,北北西,11.8,96.6,0,0,0,0,0,0,1003.7,1017.7
275,2020-11-23T04:34:00,1.2,北,3,北北東,11.8,96.6,0,0,0,0,0,0,1003.7,1017.7
276,2020-11-23T04:35:00,1.4,北,3.2,北北東,11.7,96.4,0,0,0,0,0,0,1003.8,1017.8
277,2020-11-23T04:36:00,1.6,北,3.9,北北東,11.8,96.5,0,0,0,0,0,0,1003.7,1017.7
278,2020-11-23T04:37:00,1.7,北,3.9,北北東,12.1,96.8,0,0,0,0,0,0,1003.7,1017.7
279,2020-11-23T04:38:00,1.9,北,3.9,北北東,12.2,96.9,0,0,0,0,0,0,1003.7,1017.7
280,2020-11-23T04:39:00,2.1,北北東,3.9,北北東,12.3,96.9,0,0,0,0,0,0,1003.8,1017.8
281,2020-11-23T04:40:00,2.2,北北東,3.9,北北東,12.3,96.8,0,0,0,0,0,0,1003.7,1017.7
282,2020-11-23T04:41:00,2.3,北北東,3.9,北北東,12.1,96.6,0,0,0,0,0,0,1003.8,1017.8
283,2020-11-23T04:42:00,2.4,北北東,5,北北西,12.2,96.4,0,0,0,0,0,0,1003.8,1017.8
284,2020-11-23T04:43:00,2.6,北,5.8,北北東,12.3,96.4,0,0,0,0,0,0,1003.8,1017.8
285,2020-11-23T04:44:00,2.6,北,5.8,北北東,12.5,96.2,0,0,0,0,0,0,1003.8,1017.8
286,2020-11-23T04:45:00,2.6,北,5.8,北北東,12.8,96.1,0,0,0,0,0,0,1003.8,1017.8
287,2020-11-23T04:46:00,2.6,北,5.9,北北東,12.9,95.7,0,0,0,0,0,0,1003.8,1017.8
288,2020-11-23T04:47:00,2.7,北,6.4,北北東,13.1,94.7,0,0,0,0,0,0,1003.8,1017.8
289,2020-11-23T04:48:00,2.9,北,6.4,北北東,13.1,92.9,0,0,0,0,0,0,1003.8,1017.8
290,2020-11-23T04:49:00,2.9,北,6.4,北北東,13.1,91.2,0,0,0,0,0,0,1003.8,1017.8
291,2020-11-23T04:50:00,3.1,北,6.7,北,13.2,89.8,0,0,0,0,0,0,1003.8,1017.8
292,2020-11-23T04:51:00,3.3,北,6.7,北,13.2,88.3,0,0,0,0,0,0,1003.8,1017.8
293,2020-11-23T04:52:00,3.4,北,6.7,北,13.2,86.6,0,0,0,0,0,0,1003.9,1017.9
294,2020-11-23T04:53:00,3.2,北,6.7,北,13.2,85.5,0,0,0,0,0,0,1003.9,1017.9
295,2020-11-23T04:54:00,3.2,北,6.7,北,13.2,84.5,0,0,0,0,0,0,1003.9,1017.9
296,2020-11-23T04:55:00,3.2,北,6.7,北,13.2,83.9,0,0,0,0,0,0,1003.9,1017.9
297,2020-11-23T04:56:00,3.3,北,6.7,北,13.3,83.1,0,0,0,0,0,0,1003.9,1017.9
298,2020-11-23T04:57:00,3.1,北,6.7,北,13.2,82.3,0,0,0,0,0,0,1003.9,1017.9
299,2020-11-23T04:58:00,3,北,6.7,北,13.2,81.8,0,0,0,0,0,0,1003.9,1017.9
300,2020-11-23T04:59:00,2.8,北,6.7,北,13.2,81.7,0,0,0,0,0,0,1004,1018
301,2020-11-23T05:00:00,2.7,北北西,6.7,北,13.1,81.9,0,0,0,0,0,0,1003.9,1017.9
302,2020-11-23T05:01:00,2.7,北北西,6.7,北,13.1,81.8,0,0,0,0,0,0,1004,1018
303,2020-11-23T05:02:00,2.7,北北西,6.5,北北東,13.1,81.7,0,0,0,0,0,0,1004,1018
304,2020-11-23T05:03:00,2.7,北北西,6.5,北北東,13.2,81.6,0,0,0,0,0,0,1004,1018
305,2020-11-23T05:04:00,2.7,北北西,6.5,北北東,13.2,81.4,0,0,0,0,0,0,1004,1018
306,2020-11-23T05:05:00,2.7,北北西,6.5,北北東,13.2,81.2,0,0,0,0,0,0,1004,1018
307,2020-11-23T05:06:00,2.6,北北西,6.2,北西,13.2,81.1,0,0,0,0,0,0,1004.1,1018.1
308,2020-11-23T05:07:00,2.7,北北西,6.4,北北東,13.2,80.7,0,0,0,0,0,0,1004.1,1018.1
309,2020-11-23T05:08:00,2.6,北北西,6.4,北北東,13.3,80.3,0,0,0,0,0,0,1004.1,1018.1
310,2020-11-23T05:09:00,2.7,北北西,6.4,北北東,13.3,80,0,0,0,0,0,0,1004.1,1018.1
311,2020-11-23T05:10:00,2.6,北北西,6.4,北北東,13.2,79.9,0,0,0,0,0,0,1004.1,1018.1
312,2020-11-23T05:11:00,2.4,北北西,6.4,北北東,13.2,80,0,0,0,0,0,0,1004.1,1018.1
313,2020-11-23T05:12:00,2.3,北北西,6.4,北北東,13.2,79.9,0,0,0,0,0,0,1004.1,1018.1
314,2020-11-23T05:13:00,2.2,北北西,6.4,北北東,13.2,80,0,0,0,0,0,0,1004.1,1018.1
315,2020-11-23T05:14:00,2.1,北,6.4,北北東,13.3,80.2,0,0,0,0,0,0,1004.1,1018.1
316,2020-11-23T05:15:00,2,北,6.4,北北東,13.2,80.1,0,0,0,0,0,0,1004.1,1018.1
317,2020-11-23T05:16:00,2.1,北,6.4,北北東,13,80.5,0,0,0,0,0,0,1004.1,1018.1
318,2020-11-23T05:17:00,2.1,北,4.4,北西,13,81.7,0,0,0,0,0,0,1004.1,1018.1
319,2020-11-23T05:18:00,2,北,4.1,北,12.8,82.7,0,0,0,0,0,0,1004.1,1018.1
320,2020-11-23T05:19:00,2.1,北北東,3.8,北北東,12.7,83.7,0,0,0,0,0,0,1004.1,1018.1
321,2020-11-23T05:20:00,2.2,北北東,3.9,北,12.8,84.7,0,0,0,0,0,0,1004.1,1018.1
322,2020-11-23T05:21:00,2.3,北北東,3.9,北,12.8,85.6,0,0,0,0,0,0,1004.1,1018.1
323,2020-11-23T05:22:00,2.5,北北東,4.2,北北東,12.8,85.8,0,0,0,0,0,0,1004.1,1018.1
324,2020-11-23T05:23:00,2.7,北北東,4.3,北,12.8,85.9,0,0,0,0,0,0,1004.1,1018.1
325,2020-11-23T05:24:00,2.9,北北東,4.3,北,12.9,85.9,0,0,0,0,0,0,1004.1,1018.1